South Lake Tahoe, CA

6:16 PM PST on February 24, 2017 (GMT -0800)
Lake Tahoe

Weather History for KTVL - July, 2012

Change the Weather History Date:

Tuesday, July 17, 2012

  Actual Average Record
Temperature  
Mean Temperature 58 °F 62 °F  
Max Temperature 71 °F 82 °F 90 °F (2010)
Min Temperature 44 °F 42 °F 29 °F (1993)
Degree Days  
Heating Degree Days 7 4  
Month to date heating degree days 62 86  
Since 1 June heating degree days 374 396  
Since 1 July heating degree days 62 86  
Cooling Degree Days 0 1  
Month to date cooling degree days 5 5  
Year to date cooling degree days 5 6  
Since 1 June cooling degree days 5 6  
Growing Degree Days 8 (Base 50)    
Moisture  
Dew Point 34 °F    
Average Humidity 45    
Maximum Humidity 65    
Minimum Humidity 24    
Precipitation  
Precipitation 0.00 in - 0.24 in (2002)
Month to date precipitation 0.00  
Year to date precipitation 10.32  
Sea Level Pressure  
Sea Level Pressure 29.88 in    
Wind  
Wind Speed 8 mph (SSW)    
Max Wind Speed 21 mph    
Max Gust Speed 28 mph    
Visibility 10 miles    
Events      
T = Trace of Precipitation, MM = Missing Value Source: NWS Daily Summary

Daily Weather History Graph

Daily Weather History Graph

Search for Another Location

Airport or City:

Trip Planner

Search our weather history database for the weather conditions in past years. The results will help you decide how hot, cold, wet, or windy it might be!

Date:

Astronomy

Jul. 17, 2012 Rise Set
Actual Time 5:48 AM PDT 8:23 PM PDT
Civil Twilight 5:18 AM PDT 8:53 PM PDT
Nautical Twilight 4:39 AM PDT 9:32 PM PDT
Astronomical Twilight 3:56 AM PDT 10:15 PM PDT
Moon 4:30 AM PDT (7/17) 7:16 PM PDT (7/17)
Length of Visible Light 15h 35m
Length of Day
14h 34m
Waning Crescent, 2% of the Moon is Illuminated
Jul 17
Waning Crescent
Jul 18
New
Jul 26
First Quarter
Aug 1
Full
Aug 9
Last Quarter

Hourly Weather History & Observations

Time (PDT) Temp. Dew Point Humidity Pressure Visibility Wind Dir Wind Speed Gust Speed Precip Events Conditions
12:53 AM 57.0 °F 30.9 °F 37% 29.82 in 10.0 mi SSW 11.5 mph - N/A   Clear
1:53 AM 54.0 °F 30.9 °F 41% 29.84 in 10.0 mi South 8.1 mph - N/A   Clear
2:53 AM 48.9 °F 34.0 °F 56% 29.84 in 10.0 mi South 4.6 mph - N/A   Clear
3:53 AM 45.0 °F 33.1 °F 63% 29.86 in 10.0 mi Calm Calm - N/A   Clear
4:53 AM 48.0 °F 30.9 °F 52% 29.86 in 10.0 mi Variable 3.5 mph - N/A   Clear
5:53 AM 48.9 °F 30.9 °F 50% 29.86 in 10.0 mi Calm Calm - N/A   Clear
6:53 AM 51.1 °F 33.1 °F 50% 29.88 in 10.0 mi South 4.6 mph - N/A   Clear
7:53 AM 59.0 °F 33.1 °F 38% 29.87 in 10.0 mi SSW 13.8 mph 21.9 mph N/A   Clear
8:53 AM 61.0 °F 33.1 °F 35% 29.88 in 10.0 mi South 11.5 mph - N/A   Clear
9:53 AM 64.0 °F 32.0 °F 30% 29.87 in 10.0 mi South 13.8 mph 21.9 mph N/A   Clear
10:53 AM 66.9 °F 28.9 °F 24% 29.86 in 10.0 mi South 17.3 mph 23.0 mph N/A   Clear
11:53 AM 68.0 °F 30.0 °F 24% 29.86 in 10.0 mi South 15.0 mph 24.2 mph N/A   Clear
12:53 PM 68.0 °F 35.1 °F 30% 29.86 in 10.0 mi SSW 9.2 mph - N/A   Clear
1:53 PM 69.1 °F 36.0 °F 30% 29.86 in 10.0 mi Variable 5.8 mph 24.2 mph N/A   Clear
2:53 PM 70.0 °F 35.1 °F 28% 29.86 in 10.0 mi South 8.1 mph 20.7 mph N/A   Clear
3:53 PM 70.0 °F 35.1 °F 28% 29.87 in 10.0 mi SSW 11.5 mph 20.7 mph N/A   Clear
4:53 PM 66.9 °F 37.9 °F 34% 29.88 in 10.0 mi SSW 11.5 mph 20.7 mph N/A   Clear
5:53 PM 64.0 °F 39.0 °F 40% 29.89 in 10.0 mi SSW 12.7 mph 21.9 mph N/A   Clear
6:53 PM 62.1 °F 39.0 °F 43% 29.90 in 10.0 mi SSW 9.2 mph - N/A   Clear
7:53 PM 59.0 °F 39.9 °F 49% 29.90 in 10.0 mi South 9.2 mph - N/A   Clear
8:53 PM 55.9 °F 39.9 °F 55% 29.91 in 10.0 mi South 6.9 mph - N/A   Clear
9:53 PM 53.1 °F 37.9 °F 57% 29.92 in 10.0 mi Calm Calm - N/A   Clear
10:53 PM 51.1 °F 34.0 °F 52% 29.93 in 10.0 mi North 3.5 mph - N/A   Clear
11:53 PM 50.0 °F 33.1 °F 52% 29.94 in 10.0 mi Calm Calm - N/A   Clear